Cloquet, MN

1:08 AM CST on December 13, 2017 (GMT -0600)
Cloquet Carlton County

Weather History for KCOQ - February, 2013

Change the Weather History Date:

Monday, February 25, 2013

  Actual Average Record
Temperature  
Mean Temperature 22 °F -  
Max Temperature 33 °F 26 °F 84 °F (1999)
Min Temperature 12 °F 11 °F -14 °F (2003)
Degree Days  
Heating Degree Days 42    
Moisture  
Dew Point 14 °F    
Average Humidity 72    
Maximum Humidity 86    
Minimum Humidity 52    
Precipitation  
Precipitation 0.00 in - - ()
Sea Level Pressure  
Sea Level Pressure 30.03 in    
Wind  
Wind Speed 3 mph (SSW)    
Max Wind Speed 12 mph    
Max Gust Speed -    
Visibility 9 miles    
Events      
Averages and records for this station are not official NWS values.
T = Trace of Precipitation, MM = Missing Value Source: NWS Daily Summary

Daily Weather History Graph

Daily Weather History Graph

Search for Another Location

Airport or City:

Trip Planner

Search our weather history database for the weather conditions in past years. The results will help you decide how hot, cold, wet, or windy it might be!

Date:

Astronomy

Feb. 25, 2013 Rise Set
Actual Time 6:56 AM CST 5:50 PM CST
Civil Twilight 6:25 AM CST 6:20 PM CST
Nautical Twilight 5:50 AM CST 6:56 PM CST
Astronomical Twilight 5:15 AM CST 7:31 PM CST
Moon 6:08 PM CST (2/25) 6:24 AM CST (2/25)
Length of Visible Light 11h 55m
Length of Day
10h 54m
Full, 100% of the Moon is Illuminated
Feb 25
Full
Feb 25
Full
Mar 4
Last Quarter
Mar 11
New
Mar 19
First Quarter

Hourly Weather History & Observations

Time (CST) Temp. Windchill Dew Point Humidity Pressure Visibility Wind Dir Wind Speed Gust Speed Precip Events Conditions
12:16 AM 23.0 °F 18.4 °F 15.8 °F 74% 30.04 in 10.0 mi West 3.5 mph - N/A   Clear
12:36 AM 23.0 °F 17.0 °F 15.8 °F 74% 30.04 in 10.0 mi West 4.6 mph - N/A   Clear
12:55 AM 23.0 °F 18.4 °F 15.8 °F 74% 30.04 in 10.0 mi West 3.5 mph - N/A   Clear
1:16 AM 21.2 °F 16.4 °F 15.8 °F 80% 30.05 in 10.0 mi WSW 3.5 mph - N/A   Clear
1:36 AM 21.2 °F 16.4 °F 15.8 °F 80% 30.05 in 10.0 mi SW 3.5 mph - N/A   Clear
1:56 AM 21.2 °F - 15.8 °F 80% 30.05 in 10.0 mi Calm Calm - N/A   Clear
2:16 AM 19.4 °F - 15.8 °F 86% 30.05 in 10.0 mi Calm Calm - N/A   Clear
2:35 AM 15.8 °F - 12.2 °F 86% 30.05 in 10.0 mi Calm Calm - N/A   Clear
2:56 AM 15.8 °F - 12.2 °F 86% 30.04 in 10.0 mi Calm Calm - N/A   Clear
3:16 AM 14.0 °F - 10.4 °F 86% 30.04 in 7.0 mi Calm Calm - N/A   Clear
3:36 AM 15.8 °F - 12.2 °F 86% 30.03 in 7.0 mi Calm Calm - N/A   Clear
3:56 AM 12.2 °F - 8.6 °F 85% 30.03 in 10.0 mi Calm Calm - N/A   Clear
4:16 AM 15.8 °F - 10.4 °F 79% 30.03 in 10.0 mi Calm Calm - N/A   Clear
4:35 AM 12.2 °F - 8.6 °F 85% 30.03 in 10.0 mi Calm Calm - N/A   Scattered Clouds
4:56 AM 15.8 °F - 10.4 °F 79% 30.04 in 7.0 mi Calm Calm - N/A   Mostly Cloudy
5:16 AM 15.8 °F - 10.4 °F 79% 30.03 in 7.0 mi Calm Calm - N/A   Mostly Cloudy
5:35 AM 14.0 °F - 10.4 °F 86% 30.04 in 7.0 mi Calm Calm - N/A   Mostly Cloudy
5:56 AM 14.0 °F - 8.6 °F 79% 30.03 in 10.0 mi Calm Calm - N/A   Scattered Clouds
6:15 AM 14.0 °F - 10.4 °F 86% 30.04 in 10.0 mi Calm Calm - N/A   Clear
6:36 AM 14.0 °F - 10.4 °F 86% 30.04 in 7.0 mi Calm Calm - N/A   Clear
6:56 AM 14.0 °F - 10.4 °F 86% 30.04 in 5.0 mi Calm Calm - N/A   Scattered Clouds
7:16 AM 15.8 °F - 12.2 °F 86% 30.04 in 5.0 mi Calm Calm - N/A   Scattered Clouds
7:36 AM 15.8 °F - 12.2 °F 86% 30.05 in 4.0 mi Calm Calm - N/A   Scattered Clouds
7:55 AM 15.8 °F - 10.4 °F 79% 30.06 in 5.0 mi Calm Calm - N/A   Clear
8:16 AM 15.8 °F - 12.2 °F 86% 30.06 in 10.0 mi Calm Calm - N/A   Mostly Cloudy
8:36 AM 17.6 °F - 12.2 °F 79% 30.06 in 7.0 mi Calm Calm - N/A   Mostly Cloudy
8:55 AM 19.4 °F - 15.8 °F 86% 30.06 in 7.0 mi Calm Calm - N/A   Scattered Clouds
9:16 AM 21.2 °F - 17.6 °F 86% 30.05 in 10.0 mi Calm Calm - N/A   Clear
9:36 AM 23.0 °F - 15.8 °F 74% 30.05 in 10.0 mi Calm Calm - N/A   Clear
9:55 AM 26.6 °F 22.6 °F 15.8 °F 64% 30.05 in 10.0 mi SW 3.5 mph - N/A   Clear
10:16 AM 26.6 °F 16.8 °F 15.8 °F 64% 30.06 in 10.0 mi WSW 10.4 mph - N/A   Clear
10:36 AM 28.4 °F 21.2 °F 15.8 °F 59% 30.06 in 10.0 mi SW 6.9 mph - N/A   Clear
10:55 AM 28.4 °F 22.2 °F 17.6 °F 64% 30.05 in 10.0 mi SSW 5.8 mph - N/A   Clear
11:16 AM 28.4 °F 20.4 °F 17.6 °F 64% 30.04 in 10.0 mi South 8.1 mph - N/A   Clear
11:36 AM 30.2 °F 22.6 °F 17.6 °F 60% 30.03 in 10.0 mi South 8.1 mph - N/A   Clear
11:56 AM 30.2 °F 22.6 °F 17.6 °F 60% 30.03 in 10.0 mi SSW 8.1 mph - N/A   Clear
12:16 PM 30.2 °F 24.3 °F 17.6 °F 60% 30.03 in 10.0 mi SSW 5.8 mph - N/A   Clear
12:35 PM 32.0 °F 24.8 °F 17.6 °F 55% 30.03 in 10.0 mi South 8.1 mph - N/A   Clear
12:55 PM 32.0 °F 23.0 °F 17.6 °F 55% 30.02 in 10.0 mi South 11.5 mph - N/A   Clear
1:16 PM 32.0 °F 24.2 °F 17.6 °F 55% 30.02 in 10.0 mi South 9.2 mph - N/A   Clear
1:36 PM 33.8 °F 27.7 °F 17.6 °F 52% 30.02 in 10.0 mi SSW 6.9 mph - N/A   Clear
1:56 PM 33.8 °F 27.0 °F 17.6 °F 52% 30.01 in 10.0 mi SSW 8.1 mph - N/A   Scattered Clouds
2:16 PM 33.8 °F 26.4 °F 17.6 °F 52% 30.01 in 10.0 mi South 9.2 mph - N/A   Clear
2:35 PM 33.8 °F 26.4 °F 17.6 °F 52% 30.01 in 10.0 mi South 9.2 mph - N/A   Clear
2:56 PM 33.8 °F 27.7 °F 17.6 °F 52% 30.00 in 10.0 mi South 6.9 mph - N/A   Clear
3:16 PM 33.8 °F 28.6 °F 17.6 °F 52% 30.00 in 10.0 mi South 5.8 mph - N/A   Clear
3:36 PM 33.8 °F 27.0 °F 17.6 °F 52% 30.00 in 10.0 mi South 8.1 mph - N/A   Clear
3:56 PM 33.8 °F 28.6 °F 17.6 °F 52% 30.00 in 10.0 mi South 5.8 mph - N/A   Clear
4:16 PM 33.8 °F 30.8 °F 17.6 °F 52% 30.00 in 10.0 mi SSW 3.5 mph - N/A   Clear
4:36 PM 33.8 °F 28.6 °F 17.6 °F 52% 30.01 in 10.0 mi South 5.8 mph - N/A   Clear
4:56 PM 33.8 °F 27.7 °F 17.6 °F 52% 30.01 in 10.0 mi SSW 6.9 mph - N/A   Clear
8:14 PM 24.8 °F - 17.6 °F 74% 30.03 in 10.0 mi Calm Calm - N/A   Clear
8:16 PM 24.8 °F - 15.8 °F 69% 30.03 in 10.0 mi Calm Calm - N/A   Clear
8:35 PM 24.8 °F 20.5 °F 15.8 °F 69% 30.03 in 10.0 mi West 3.5 mph - N/A   Clear
8:56 PM 21.2 °F - 15.8 °F 80% 30.03 in 10.0 mi Calm Calm - N/A   Clear
9:16 PM 19.4 °F - 14.0 °F 80% 30.02 in 10.0 mi Calm Calm - N/A   Clear
9:35 PM 21.2 °F - 15.8 °F 80% 30.02 in 10.0 mi Calm Calm - N/A   Clear
9:56 PM 19.4 °F - 12.2 °F 74% 30.02 in 10.0 mi Calm Calm - N/A   Clear
10:15 PM 17.6 °F - 12.2 °F 79% 30.02 in 10.0 mi Calm Calm - N/A   Clear
10:36 PM 15.8 °F - 12.2 °F 86% 30.02 in 10.0 mi Calm Calm - N/A   Clear
10:56 PM 17.6 °F - 14.0 °F 86% 30.02 in 10.0 mi Calm Calm - N/A   Clear
11:15 PM 17.6 °F - 12.2 °F 79% 30.01 in 10.0 mi Calm Calm - N/A   Clear
11:36 PM 15.8 °F 8.6 °F 10.4 °F 79% 30.00 in 10.0 mi NNW 4.6 mph - N/A   Clear
11:56 PM 15.8 °F 10.2 °F 10.4 °F 79% 30.01 in 7.0 mi NW 3.5 mph - N/A   Clear